Helicity
141 142 137 139 145 131 140 174 136 161 176 170 178 198 202 187 239 173 293 348 257 254
113 99 88 89 98 102 105 97 106 131 139 134 74 89 124 134 111 58 87 100 53 91
103 97 95 75 75 80 90 77 76 79 64 62 44 17 9 -13 28 46 -3 -11 5 17
85 87 82 93 97 94 89 84 85 82 69 56 83 67 50 57 68 82 69 74 78 74
127 100 94 91 113 97 87 114 119 91 97 123 140 167 149 122 118 85 63 50 60 64
127 118 123 133 129 126 136 145 116 133 118 122 124 134 151 134 122 118 107 104 97 86
94 104 114 122 128 121 125 148 150 139 139 144 138 132 129 124 130 122 119 117 109 112
131 139 142 150 159 147 142 145 149 145 139 136 139 133 135 133 122 116 112 108 115 131
153 153 162 170 149 144 144 141 132 127 131 129 124 144 146 133 111 94 76 64 62 83
156 164 149 134 129 131 123 128 133 139 139 141 131 123 125 128 107 96 79 51 30 64
140 135 132 135 127 123 123 125 128 129 127 118 110 105 92 94 97 89 80 59 27 34
106 112 110 106 107 122 129 125 118 116 108 99 91 86 87 103 97 95 98 94 61 47
91 93 101 106 107 114 115 108 115 111 112 105 97 84 79 105 113 113 110 112 80 89
78 81 83 96 110 110 112 115 112 109 118 124 120 117 91 73 107 115 113 108 81 99
Wind_Speed
24 26 26 25 25 25 24 24 24 31 34 35 38 42 37 38 46 42 45 44 43 39
29 26 25 24 22 23 25 24 29 31 34 36 39 35 38 43 43 53 49 45 41 40
26 25 24 27 30 32 34 34 35 34 32 33 34 31 33 37 39 41 42 39 41 45
29 32 34 36 38 40 38 36 35 36 34 40 38 35 36 37 40 42 44 48 52 55
34 36 38 39 36 35 36 37 36 35 37 43 41 37 42 45 46 51 54 59 59 64
35 36 36 38 36 36 32 33 36 34 37 44 50 47 47 46 48 49 50 55 57 59
33 34 33 31 32 32 31 29 31 37 40 41 39 41 45 49 51 52 56 59 62 66
33 29 28 28 27 27 27 29 30 31 35 40 41 44 47 50 55 55 57 58 61 63
28 27 27 26 25 24 28 30 32 36 37 41 45 49 52 53 53 56 59 62 61 62
27 27 26 24 24 27 28 31 32 35 39 42 46 50 51 54 56 59 62 64 65 64
28 28 27 27 29 30 33 33 36 39 41 42 46 48 51 56 58 60 61 62 62 61
29 27 28 29 31 34 34 36 38 40 42 44 45 47 50 53 57 58 60 58 57 55
31 30 32 34 34 37 38 39 39 41 43 45 47 49 50 53 55 57 55 55 54 51
31 33 35 35 37 39 40 40 43 46 48 50 49 49 45 46 49 51 52 52 53 48
Wind_Direction
274 281 286 289 293 295 297 300 307 308 309 310 308 309 310 307 301 295 297 300 296 298
276 283 287 291 296 301 303 304 305 307 308 310 313 310 307 297 298 293 298 301 294 299
272 283 288 289 291 297 301 305 308 304 302 306 314 319 321 313 307 303 306 310 301 299
275 279 283 288 293 296 301 303 306 305 306 302 304 311 312 313 312 307 307 303 302 299
278 281 287 288 298 301 301 304 304 305 305 300 301 306 304 305 308 307 305 301 302 300
279 285 291 294 300 305 308 308 306 308 306 301 298 300 305 308 309 310 310 307 308 309
282 290 297 302 306 309 314 316 313 308 305 305 313 313 311 309 310 311 309 308 308 307
282 288 296 303 312 316 321 324 320 314 312 310 313 313 314 313 310 312 311 312 311 310
279 286 295 303 309 315 317 316 313 311 311 311 310 311 311 312 314 313 313 313 313 312
278 285 293 300 306 310 312 313 315 315 314 313 314 315 317 317 315 314 314 313 313 313
280 284 290 296 300 304 307 310 311 312 314 317 318 319 319 318 316 315 315 316 316 316
282 286 290 294 299 303 306 309 311 313 315 317 319 321 321 321 320 318 318 319 320 319
284 288 292 295 298 301 304 307 311 313 316 317 318 321 321 322 320 318 319 320 321 322
290 292 294 297 300 302 304 307 310 311 313 315 318 320 322 325 324 322 321 320 320 322